Location: Dackenheim
(49.5215°N, 8.1854°E)
Time: 03:38:25
(UTC+00:00)

JY1SAT - Pass Details

Date: 20 March 2026
Orbit: 466 x 476 km, 97.4° (Epoch: 17 April)

Event Time Altitude Azimuth Distance (km) Brightness Sun altitude
Exits shadow 21:05:36 19° 318° (NW) 1,221 ? -31.0°
Drops below altitude 10° 21:06:50 10° 330° (NNW) 1,666 ? -31.2°
Sets 21:09:02 0° 340° (NNW) 2,550 ? -31.4°
